Regional Weather Roundup
Issued by NWS

Home | Current Version | Previous Version | Text Only | Print | Product List | Glossary On
Versions: 1 2 3 4 5 6 7 8 9 10 11 12 13 14 15 16 17 18 19 20 21 22 23 24 25 26 27 28 29 30 31 32 33 34 35 36 37 38 39 40 41 42 43 44 45 46 47 48 49 50
000
ASUS42 KFFC 160103
RWRGA
WEATHER ROUNDUP FOR GEORGIA
NATIONAL WEATHER SERVICE PEACHTREE CITY GA
900 PM EDT MON SEP 15 2014

NOTE: "FAIR" INDICATES FEW OR NO CLOUDS BELOW 12,000 FEET WITH NO
SIGNIFICANT WEATHER AND/OR OBSTRUCTIONS TO VISIBILITY.

* = USE WITH CAUTION. THE STATIONS MARKED WITH AN ASTERISK MAY NOT
REPORT WEATHER SUCH AS PRECIPITATION, FOG, OR THUNDER AND ARE NOT
QUALITY CONTROLLED BY NWS.

THE REMARK "TC" DENOTES TEMPERATURE READING IN DEGREES CELSIUS.

GAZ001>058-160200-
NORTH GEORGIA

CITY           SKY/WX    TMP DP  RH WIND       PRES   REMARKS
ATLANTA        LGT RAIN  74  70  87 CALM      30.13F
ATHENS         CLOUDY    73  69  87 CALM      30.15R
CHAMBLEE       CLOUDY    73  69  87 CALM      30.15R
PEACHTREE CITY LGT RAIN  75  74  96 CALM      30.13F FOG
ROME           CLOUDY    74  71  91 CALM      30.12S
WEST ATLANTA   CLOUDY    74  71  91 CALM      30.13F
GAINESVILLE    CLOUDY    70  68  93 S3        30.17S
CARTERSVILLE   CLOUDY    72  70  93 CALM      30.14S


CITY           SKY/WX    TMP DP  RH WIND       PRES   REMARKS
DALTON*        CLOUDY    72  72 100 CALM      30.13S
LAWRENCEVILLE* MOCLDY    72  64  78 CALM      30.15S FOG
MARIETTA       MOCLDY    73  71  94 CALM      30.14S
$$

GAZ059>098-102>109-160200-
CENTRAL GEORGIA

CITY           SKY/WX    TMP DP  RH WIND       PRES   REMARKS
AUGUSTA-BUSH   CLOUDY    73  72  96 SE3       30.13R
AUGUSTA-DANIEL MOCLDY    75  72  90 CALM      30.14S
COLUMBUS       CLOUDY    81  73  76 N5        30.11R
MACON          CLOUDY    77  75  93 NE5       30.12R
ROBINS AFB     CLOUDY    78  74  89 E3        30.12R


CITY           SKY/WX    TMP DP  RH WIND       PRES   REMARKS
LAGRANGE*      LGT RAIN  78  77  96 CALM      30.12S
SYLVANIA*      CLEAR     75  74  96 CALM      30.15R
MILLEDGEVILLE* CLOUDY    77  73  88 CALM      30.14R
$$

GAZ099>101-110>166-160200-
SOUTH GEORGIA

CITY           SKY/WX    TMP DP  RH WIND       PRES   REMARKS
SAVANNAH       MOCLDY    77  73  87 CALM      30.14R
VALDOSTA       CLOUDY    76  74  93 CALM      30.13R
ALMA           CLOUDY    75  71  87 CALM      30.12F
ST SIMONS      CLOUDY    80  74  81 SW13G18   30.13R
FT STEWART     CLOUDY    76  74  95 CALM      30.12R
ALBANY         MOCLDY    77  75  93 SE5       30.12R
HUNTER AFB     MOCLDY    76  76 100 N3        30.12R
MOODY AFB      CLOUDY    74  73  95 NE3       30.13R
BRUNSWICK      CLOUDY    79  73  83 W13       30.14R THUNDER


CITY           SKY/WX    TMP DP  RH WIND       PRES   REMARKS
BAINBRIDGE*    CLOUDY    79  77  94 CALM      30.08S
MOULTRIE*      MOCLDY    75  75 100 CALM      30.13R
VIDALIA*       CLOUDY    79  73  83 CALM      30.15R
WAYCROSS*      RAIN      77  76  98 S3        30.12F
DOUGLAS*       CLOUDY    77  73  88 CALM      30.15S
$$


USA.gov is the U.S. government's official web portal to all federal, state and local government web resources and services.